Location: Manchester NH
(43.0000°N, 71.5000°W)
Time: 17:22:10
(UTC-04:00)

Envisat - Visible Passes

Search period start: 20 June 2018 00:00
Search period end: 30 June 2018 00:00
Orbit: 764 x 766 km, 98.2° (Epoch: 20 June)

Date Brightness Start Highest point End Pass type
(mag) Time Alt. Az. Time Alt. Az. Time Alt. Az.
20 Jun 5.6 21:23:10 10° SW 21:26:07 15° W 21:29:04 10° NW visible
23 Jun 5.5 21:11:14 10° SW 21:14:51 19° W 21:18:28 10° NW visible
25 Jun 5.9 21:39:36 10° W 21:40:44 11° W 21:41:53 10° WNW visible
26 Jun 5.2 20:59:29 10° SSW 21:03:35 24° W 21:07:42 10° NW visible
28 Jun 5.7 21:26:50 10° WSW 21:29:25 14° W 21:32:01 10° WNW visible
